Shungnak AP, Shungnak, AK, AK

2:56 PM AKST on December 15, 2019 (GMT -0900)
Shungnak AP, Shungnak, AK

Weather History for PAGH - October, 2019

Change the Weather History Date:

Monday, October 14, 2019

  Actual Average (PAFM) Record (PAFM)
Temperature  
Mean Temperature 24 °F -  
Max Temperature 30 °F 23 °F 39 °F (1987)
Min Temperature 19 °F 15 °F -4 °F (1997)
Degree Days  
Heating Degree Days 40    
Moisture  
Dew Point 15 °F    
Average Humidity 71    
Maximum Humidity 85    
Minimum Humidity 56    
Precipitation  
Precipitation 0.00 in - - ()
Sea Level Pressure  
Sea Level Pressure 29.97 in    
Wind  
Wind Speed 17 mph (East)    
Max Wind Speed 24 mph    
Max Gust Speed 33 mph    
Visibility 10 miles    
Events      
Averages and records for this station are not official NWS values.
T = Trace of Precipitation, MM = Missing Value Source: NWS Daily Summary

Daily Weather History Graph

Daily Weather History Graph

Search for Another Location

Airport or City:

Astronomy

Oct. 14, 2019 Rise Set
Actual Time 9:24 AM AKDT 7:02 PM AKDT
Civil Twilight 8:30 AM AKDT 7:57 PM AKDT
Nautical Twilight 7:29 AM AKDT 8:58 PM AKDT
Astronomical Twilight 6:25 AM AKDT 10:01 PM AKDT
Moon 7:48 PM AKDT (10/14) 10:07 AM AKDT (10/14)
Length of Visible Light 11h 26m
Length of Day
9h 38m
Full, 99% of the Moon is Illuminated
Oct 14
Full
Oct 21
Last Quarter
Oct 27
New
Nov 4
First Quarter
Nov 12
Full

Hourly Weather History & Observations

Time (AKDT) Temp. Windchill Dew Point Humidity Pressure Visibility Wind Dir Wind Speed Gust Speed Precip Events Conditions
12:56 AM 21.0 °F 8.1 °F 17.1 °F 85% 30.14 in 10.0 mi East 13.8 mph - N/A   Clear
1:56 AM 21.0 °F 7.1 °F 17.1 °F 85% 30.14 in 10.0 mi East 16.1 mph - N/A   Clear
2:56 AM 21.0 °F 7.6 °F 17.1 °F 85% 30.12 in 10.0 mi East 15.0 mph - N/A   Clear
3:56 AM 21.0 °F 6.2 °F 16.0 °F 81% 30.11 in 10.0 mi ESE 18.4 mph 24.2 mph N/A   Clear
4:56 AM 21.0 °F 5.7 °F 16.0 °F 81% 30.09 in 10.0 mi East 19.6 mph - N/A   Clear
5:56 AM 21.0 °F 7.1 °F 15.1 °F 78% 30.09 in 10.0 mi East 16.1 mph 25.3 mph N/A   Clear
6:56 AM 21.0 °F 7.6 °F 15.1 °F 78% 30.07 in 10.0 mi East 15.0 mph - N/A   Clear
7:56 AM 21.0 °F 6.6 °F 15.1 °F 78% 30.06 in 10.0 mi East 17.3 mph - N/A   Clear
8:56 AM 19.9 °F 6.2 °F 14.0 °F 78% 30.05 in 10.0 mi East 15.0 mph - N/A   Clear
9:56 AM 21.0 °F 6.2 °F 14.0 °F 74% 30.03 in 10.0 mi East 18.4 mph 25.3 mph N/A   Clear
10:56 AM 23.0 °F 9.2 °F 15.1 °F 72% 30.02 in 10.0 mi East 17.3 mph - N/A   Clear
11:56 AM 25.0 °F 12.2 °F 15.1 °F 66% 30.01 in 10.0 mi East 16.1 mph 25.3 mph N/A   Clear
1:56 PM 28.9 °F 16.5 °F 17.1 °F 61% 29.97 in 10.0 mi ESE 18.4 mph 26.5 mph N/A   Clear
2:56 PM 30.0 °F 17.9 °F 16.0 °F 56% 29.94 in 10.0 mi East 18.4 mph 25.3 mph N/A   Clear
3:56 PM 30.0 °F 16.9 °F 17.1 °F 59% 29.90 in 10.0 mi East 21.9 mph - N/A   Clear
4:56 PM 30.9 °F 19.8 °F 17.1 °F 57% 29.88 in 10.0 mi East 16.1 mph 25.3 mph N/A   Clear
6:56 PM 28.0 °F 15.7 °F 16.0 °F 61% 29.84 in 10.0 mi East 17.3 mph - N/A   Clear
7:56 PM 26.1 °F 12.0 °F 16.0 °F 66% 29.82 in 10.0 mi East 20.7 mph - N/A   Clear
8:56 PM 25.0 °F 10.9 °F 15.1 °F 66% 29.81 in 10.0 mi East 19.6 mph - N/A   Clear
9:56 PM 25.0 °F 11.3 °F 14.0 °F 63% 29.79 in 10.0 mi East 18.4 mph - N/A   Clear
10:56 PM 25.0 °F 9.5 °F 12.9 °F 60% 29.76 in 10.0 mi East 24.2 mph 33.4 mph N/A   Clear
11:56 PM 24.1 °F 11.5 °F 12.9 °F 62% 29.75 in 10.0 mi ESE 15.0 mph - N/A   Clear